Location: Newark
(35.0033°N, 81.0878°W)
Time: 11:07:21
(UTC+00:00)

Envisat - Pass Details

Date: 12 August 2021
Orbit: 764 x 766 km, 98.2° (Epoch: 22 September)

Event Time Altitude Azimuth Distance (km) Brightness Sun altitude
Rises 09:38:01 0° 29° (NNE) 3,235 7.3 -12.9°
Reaches altitude 10° 09:40:52 10° 45° (NE) 2,304 6.8 -12.4°
Maximum altitude 09:44:42 21° 94° (E) 1,649 5.5 -11.7°
Drops below altitude 10° 09:48:31 10° 144° (SE) 2,292 5.6 -11.0°
Sets 09:51:19 0° 160° (SSE) 3,213 6.2 -10.5°
